GFSSW_prec_precacc_273.txt.gz
Total_Precipitation_Accumulation
0.06 0.05 0.06 0.05 0.04 0.04 0.02 0.02 0.01 0.00 0.00 0.01 0.01 0.00 0.00 0.00 0.00 0.00 0.00 0.00 0.00 0.00 0.00 0.02 0.15 0.33 0.49 0.50 0.57 0.61 1.64 0.41 0.09 0.22 0.07 0.01 0.04 0.03 0.02 0.00 0.02 0.05 0.15 0.03 0.01
0.06 0.05 0.06 0.05 0.04 0.03 0.02 0.02 0.00 0.01 0.01 0.01 0.01 0.00 0.00 0.00 0.00 0.00 0.00 0.00 0.00 0.00 0.04 0.06 0.08 0.17 0.72 0.52 0.58 0.50 0.83 0.10 0.02 0.07 0.07 0.02 0.03 0.03 0.04 0.04 0.11 0.00 0.02 0.00 0.00
0.05 0.05 0.06 0.05 0.04 0.03 0.02 0.02 0.01 0.00 0.00 0.01 0.01 0.00 0.00 0.00 0.00 0.00 0.00 0.00 0.00 0.04 0.05 0.04 0.03 0.05 0.23 0.44 0.90 0.27 0.36 0.01 0.01 0.00 0.03 0.07 0.01 0.02 0.07 0.17 0.12 0.00 0.00 0.00 0.00
0.05 0.05 0.05 0.05 0.04 0.04 0.03 0.02 0.01 0.00 0.01 0.01 0.00 0.00 0.00 0.00 0.00 0.00 0.00 0.00 0.01 0.03 0.01 0.03 0.04 0.08 0.10 0.27 0.13 0.34 0.07 0.00 0.00 0.00 0.02 0.03 0.00 0.00 0.01 0.04 0.00 0.00 0.00 0.00 0.01
0.04 0.04 0.04 0.04 0.05 0.04 0.03 0.02 0.01 0.00 0.01 0.01 0.00 0.00 0.00 0.00 0.00 0.00 0.00 0.00 0.01 0.00 0.00 0.00 0.01 0.02 0.11 0.12 0.12 0.14 0.03 0.01 0.00 0.00 0.00 0.00 0.00 0.00 0.01 0.04 0.04 0.00 0.00 0.00 0.00
0.04 0.04 0.03 0.04 0.05 0.04 0.03 0.01 0.01 0.00 0.00 0.00 0.00 0.00 0.00 0.00 0.00 0.00 0.00 0.00 0.00 0.01 0.00 0.00 0.00 0.00 0.03 0.06 0.14 0.08 0.03 0.02 0.02 0.01 0.01 0.00 0.00 0.00 0.00 0.05 0.06 0.02 0.00 0.00 0.01
0.04 0.03 0.03 0.03 0.04 0.03 0.02 0.01 0.00 0.00 0.00 0.00 0.00 0.00 0.00 0.00 0.00 0.00 0.00 0.00 0.00 0.00 0.01 0.00 0.00 0.00 0.01 0.09 0.09 0.04 0.06 0.02 0.01 0.03 0.01 0.01 0.02 0.01 0.01 0.01 0.02 0.02 0.06 0.12 0.15
0.03 0.03 0.04 0.03 0.03 0.03 0.01 0.00 0.00 0.00 0.00 0.00 0.00 0.00 0.00 0.00 0.00 0.00 0.00 0.00 0.00 0.00 0.00 0.00 0.00 0.00 0.01 0.09 0.16 0.14 0.11 0.10 0.04 0.03 0.04 0.07 0.29 0.04 0.01 0.02 0.05 0.12 0.21 0.32 0.31
0.03 0.03 0.03 0.03 0.03 0.02 0.01 0.00 0.00 0.00 0.00 0.00 0.00 0.00 0.00 0.00 0.00 0.00 0.00 0.00 0.00 0.00 0.00 0.00 0.00 0.00 0.00 0.03 0.15 0.14 0.42 0.34 0.20 0.03 0.11 0.17 0.50 0.15 0.02 0.07 0.05 0.17 0.59 0.48 0.36
0.03 0.03 0.02 0.03 0.03 0.02 0.00 0.00 0.00 0.00 0.00 0.00 0.00 0.00 0.00 0.00 0.00 0.00 0.00 0.00 0.00 0.00 0.00 0.00 0.00 0.00 0.00 0.01 0.13 0.11 0.13 0.13 0.17 0.09 0.10 0.19 0.70 0.52 0.06 0.02 0.06 0.29 0.99 0.26 0.19
0.03 0.03 0.03 0.02 0.02 0.02 0.00 0.01 0.00 0.00 0.00 0.00 0.00 0.00 0.00 0.00 0.00 0.00 0.00 0.00 0.00 0.00 0.00 0.00 0.00 0.00 0.00 0.00 0.00 0.03 0.03 0.10 0.11 0.10 0.09 0.20 0.44 0.41 0.08 0.13 0.06 0.18 0.69 0.37 0.11
0.03 0.03 0.02 0.01 0.00 0.00 0.00 0.00 0.00 0.00 0.00 0.00 0.00 0.00 0.00 0.00 0.00 0.00 0.00 0.00 0.00 0.00 0.00 0.00 0.00 0.00 0.00 0.00 0.00 0.00 0.00 0.05 0.05 0.03 0.07 0.24 0.18 0.14 0.05 0.26 0.29 0.05 0.30 0.21 0.27
0.03 0.03 0.03 0.00 0.00 0.00 0.00 0.00 0.00 0.00 0.00 0.00 0.00 0.00 0.00 0.00 0.00 0.00 0.00 0.00 0.00 0.00 0.00 0.00 0.00 0.00 0.00 0.00 0.00 0.00 0.00 0.00 0.02 0.04 0.06 0.05 0.12 0.16 0.13 0.07 0.12 0.06 0.05 0.15 0.30
0.03 0.03 0.03 0.00 0.00 0.00 0.00 0.00 0.00 0.00 0.00 0.00 0.00 0.00 0.00 0.00 0.00 0.00 0.00 0.00 0.00 0.00 0.00 0.00 0.00 0.00 0.00 0.00 0.00 0.00 0.01 0.00 0.00 0.03 0.05 0.03 0.20 0.28 0.26 0.08 0.16 0.13 0.09 0.04 0.11
0.03 0.03 0.03 0.00 0.00 0.00 0.00 0.00 0.00 0.00 0.00 0.00 0.00 0.00 0.00 0.00 0.00 0.00 0.00 0.00 0.00 0.00 0.00 0.00 0.00 0.00 0.00 0.00 0.00 0.00 0.00 0.00 0.00 0.00 0.01 0.02 0.09 0.18 0.15 0.22 0.44 0.22 0.19 0.17 0.12
0.01 0.03 0.03 0.00 0.00 0.00 0.00 0.00 0.00 0.00 0.00 0.00 0.00 0.00 0.00 0.00 0.00 0.00 0.00 0.00 0.00 0.00 0.00 0.00 0.00 0.00 0.00 0.00 0.00 0.00 0.00 0.00 0.00 0.00 0.02 0.01 0.01 0.04 0.06 0.22 0.18 0.33 0.16 0.22 0.59
0.00 0.01 0.02 0.00 0.00 0.00 0.00 0.00 0.00 0.00 0.00 0.00 0.00 0.00 0.00 0.00 0.00 0.00 0.00 0.00 0.00 0.00 0.00 0.00 0.00 0.00 0.00 0.00 0.00 0.00 0.00 0.00 0.00 0.00 0.01 0.00 0.01 0.00 0.01 0.02 0.17 0.17 0.46 1.22 0.81
0.00 0.00 0.00 0.00 0.00 0.00 0.00 0.00 0.00 0.00 0.00 0.00 0.00 0.00 0.00 0.00 0.00 0.00 0.00 0.00 0.00 0.00 0.00 0.00 0.00 0.00 0.00 0.00 0.00 0.00 0.00 0.00 0.00 0.00 0.00 0.00 0.00 0.02 0.03 0.05 0.10 0.31 0.84 1.17 0.70
0.00 0.00 0.00 0.00 0.00 0.00 0.00 0.00 0.00 0.00 0.00 0.00 0.00 0.00 0.00 0.00 0.00 0.00 0.00 0.00 0.00 0.00 0.00 0.00 0.00 0.00 0.00 0.00 0.00 0.00 0.00 0.00 0.00 0.00 0.00 0.00 0.00 0.01 0.02 0.08 0.23 0.41 0.48 0.64 0.97
0.00 0.00 0.00 0.00 0.00 0.00 0.00 0.00 0.00 0.00 0.00 0.00 0.00 0.00 0.00 0.00 0.00 0.00 0.00 0.00 0.00 0.00 0.00 0.00 0.00 0.00 0.00 0.00 0.00 0.00 0.00 0.00 0.00 0.00 0.00 0.00 0.01 0.05 0.17 0.24 0.55 0.28 0.29 0.66 0.82
0.00 0.00 0.00 0.00 0.00 0.00 0.00 0.00 0.00 0.00 0.00 0.00 0.00 0.00 0.00 0.00 0.00 0.00 0.00 0.00 0.00 0.00 0.00 0.00 0.00 0.00 0.00 0.00 0.00 0.00 0.00 0.00 0.00 0.00 0.01 0.01 0.07 0.09 0.16 0.40 0.37 0.19 0.42 0.72 0.73
0.00 0.00 0.00 0.00 0.00 0.00 0.00 0.00 0.00 0.00 0.00 0.00 0.00 0.00 0.00 0.00 0.00 0.00 0.00 0.00 0.00 0.00 0.00 0.00 0.00 0.00 0.00 0.00 0.00 0.00 0.02 0.05 0.02 0.06 0.04 0.01 0.11 0.27 0.31 0.31 0.38 0.81 1.72 1.41 1.05
0.00 0.00 0.00 0.00 0.00 0.00 0.00 0.00 0.00 0.00 0.00 0.00 0.00 0.00 0.00 0.00 0.00 0.00 0.00 0.00 0.00 0.00 0.00 0.00 0.00 0.00 0.00 0.00 0.01 0.04 0.06 0.07 0.02 0.01 0.04 0.21 0.21 0.32 0.42 0.67 1.27 1.68 1.79 1.40 1.36
0.00 0.00 0.00 0.00 0.00 0.00 0.01 0.00 0.03 0.02 0.02 0.02 0.00 0.00 0.00 0.00 0.00 0.00 0.00 0.00 0.00 0.00 0.00 0.00 0.01 0.00 0.01 0.01 0.00 0.00 0.00 0.01 0.02 0.02 0.05 0.23 0.22 0.48 0.59 0.49 1.22 1.52 2.06 2.39 2.37
0.00 0.01 0.06 0.07 0.05 0.02 0.06 0.03 0.06 0.19 0.17 0.10 0.07 0.00 0.00 0.00 0.00 0.00 0.00 0.00 0.00 0.00 0.00 0.00 0.00 0.01 0.01 0.02 0.01 0.01 0.00 0.02 0.01 0.04 0.16 0.09 0.22 0.84 1.29 0.63 0.87 1.37 3.22 3.22 2.29
0.04 0.09 0.06 0.02 0.07 0.06 0.10 0.30 0.35 0.16 0.21 0.20 0.22 0.22 0.02 0.00 0.00 0.00 0.00 0.00 0.00 0.00 0.00 0.00 0.00 0.00 0.01 0.02 0.01 0.03 0.09 0.03 0.02 0.02 0.03 0.04 0.16 0.67 0.58 0.43 0.60 0.79 1.50 2.02 1.95
0.15 0.16 0.19 0.03 0.00 0.15 0.24 0.25 0.28 0.20 0.09 0.23 0.15 0.24 0.08 0.02 0.01 0.00 0.00 0.00 0.00 0.00 0.00 0.00 0.00 0.00 0.00 0.02 0.02 0.05 0.13 0.15 0.21 0.25 0.21 0.35 0.57 0.80 0.73 1.10 0.75 0.70 0.75 0.66 0.75

GFSSW_prec_precacc_276.txt.gz
Total_Precipitation_Accumulation
0.07 0.06 0.06 0.06 0.05 0.05 0.03 0.02 0.01 0.01 0.01 0.01 0.01 0.00 0.00 0.00 0.00 0.00 0.00 0.00 0.00 0.00 0.00 0.02 0.15 0.33 0.49 0.50 0.57 0.61 1.64 0.41 0.09 0.22 0.07 0.01 0.04 0.03 0.02 0.00 0.02 0.05 0.15 0.03 0.01
0.07 0.06 0.06 0.06 0.05 0.04 0.03 0.02 0.01 0.01 0.01 0.01 0.01 0.00 0.00 0.00 0.00 0.00 0.00 0.00 0.00 0.00 0.04 0.06 0.08 0.17 0.72 0.52 0.58 0.50 0.83 0.10 0.02 0.07 0.07 0.02 0.03 0.03 0.04 0.04 0.11 0.00 0.02 0.00 0.00
0.05 0.05 0.06 0.05 0.05 0.04 0.03 0.02 0.01 0.01 0.00 0.01 0.01 0.00 0.00 0.00 0.00 0.00 0.00 0.00 0.00 0.04 0.05 0.04 0.03 0.05 0.23 0.44 0.90 0.27 0.36 0.01 0.01 0.00 0.03 0.07 0.01 0.02 0.07 0.17 0.12 0.00 0.00 0.00 0.00
0.05 0.05 0.05 0.05 0.05 0.05 0.03 0.02 0.01 0.00 0.01 0.01 0.00 0.00 0.00 0.00 0.00 0.00 0.00 0.00 0.01 0.03 0.01 0.03 0.04 0.08 0.10 0.27 0.13 0.34 0.07 0.00 0.00 0.00 0.02 0.03 0.00 0.00 0.01 0.04 0.00 0.00 0.00 0.00 0.01
0.04 0.04 0.04 0.04 0.05 0.05 0.03 0.02 0.01 0.00 0.01 0.01 0.00 0.00 0.00 0.00 0.00 0.00 0.00 0.00 0.02 0.00 0.00 0.00 0.01 0.02 0.11 0.12 0.12 0.14 0.03 0.01 0.00 0.00 0.00 0.00 0.00 0.00 0.01 0.04 0.04 0.00 0.00 0.00 0.00
0.04 0.04 0.03 0.04 0.05 0.04 0.03 0.02 0.01 0.00 0.00 0.00 0.00 0.00 0.00 0.00 0.00 0.00 0.00 0.00 0.01 0.01 0.00 0.00 0.00 0.00 0.03 0.06 0.14 0.08 0.03 0.02 0.02 0.01 0.01 0.00 0.00 0.00 0.00 0.05 0.06 0.02 0.00 0.00 0.01
0.04 0.03 0.03 0.03 0.04 0.03 0.02 0.01 0.00 0.00 0.00 0.00 0.00 0.00 0.00 0.00 0.00 0.00 0.00 0.00 0.00 0.01 0.01 0.00 0.00 0.00 0.01 0.09 0.09 0.04 0.06 0.02 0.01 0.03 0.01 0.01 0.02 0.01 0.01 0.01 0.02 0.02 0.06 0.12 0.15
0.03 0.03 0.04 0.03 0.03 0.03 0.01 0.00 0.00 0.00 0.00 0.00 0.00 0.00 0.00 0.00 0.00 0.00 0.00 0.00 0.00 0.00 0.00 0.00 0.00 0.00 0.01 0.10 0.16 0.14 0.12 0.10 0.04 0.03 0.04 0.07 0.29 0.04 0.01 0.02 0.05 0.12 0.21 0.32 0.31
0.03 0.03 0.03 0.03 0.03 0.02 0.01 0.00 0.00 0.00 0.00 0.00 0.00 0.00 0.00 0.00 0.00 0.00 0.00 0.00 0.00 0.00 0.00 0.00 0.00 0.00 0.00 0.03 0.15 0.14 0.42 0.35 0.20 0.03 0.11 0.17 0.50 0.15 0.02 0.07 0.05 0.17 0.59 0.48 0.36
0.03 0.03 0.02 0.03 0.03 0.02 0.00 0.00 0.00 0.00 0.00 0.00 0.00 0.00 0.00 0.00 0.00 0.00 0.00 0.00 0.00 0.00 0.00 0.00 0.00 0.00 0.00 0.01 0.13 0.11 0.13 0.13 0.17 0.10 0.10 0.19 0.70 0.52 0.06 0.02 0.06 0.29 0.99 0.26 0.19
0.03 0.03 0.03 0.02 0.02 0.02 0.00 0.01 0.00 0.00 0.00 0.00 0.00 0.00 0.00 0.00 0.00 0.00 0.00 0.00 0.00 0.00 0.00 0.00 0.00 0.00 0.00 0.00 0.00 0.03 0.03 0.10 0.11 0.10 0.09 0.20 0.44 0.41 0.08 0.13 0.06 0.18 0.69 0.37 0.11
0.03 0.03 0.02 0.01 0.00 0.00 0.00 0.00 0.00 0.00 0.00 0.00 0.00 0.00 0.00 0.00 0.00 0.00 0.00 0.00 0.00 0.00 0.00 0.00 0.00 0.00 0.00 0.00 0.00 0.00 0.00 0.05 0.05 0.03 0.07 0.24 0.18 0.14 0.05 0.26 0.29 0.05 0.30 0.21 0.27
0.03 0.03 0.03 0.00 0.00 0.00 0.00 0.00 0.00 0.00 0.00 0.00 0.00 0.00 0.00 0.00 0.00 0.00 0.00 0.00 0.00 0.00 0.00 0.00 0.00 0.00 0.00 0.00 0.00 0.00 0.00 0.00 0.02 0.04 0.06 0.05 0.12 0.16 0.13 0.07 0.12 0.06 0.05 0.15 0.30
0.03 0.03 0.03 0.00 0.00 0.00 0.00 0.00 0.00 0.00 0.00 0.00 0.00 0.00 0.00 0.00 0.00 0.00 0.00 0.00 0.00 0.00 0.00 0.00 0.00 0.00 0.00 0.00 0.00 0.00 0.01 0.00 0.00 0.03 0.05 0.03 0.20 0.28 0.26 0.08 0.16 0.13 0.09 0.04 0.11
0.03 0.03 0.03 0.00 0.00 0.00 0.00 0.00 0.00 0.00 0.00 0.00 0.00 0.00 0.00 0.00 0.00 0.00 0.00 0.00 0.00 0.00 0.00 0.00 0.00 0.00 0.00 0.00 0.00 0.00 0.00 0.00 0.00 0.00 0.01 0.02 0.09 0.18 0.15 0.22 0.44 0.22 0.19 0.17 0.12
0.01 0.03 0.03 0.00 0.00 0.00 0.00 0.00 0.00 0.00 0.00 0.00 0.00 0.00 0.00 0.00 0.00 0.00 0.00 0.00 0.00 0.00 0.00 0.00 0.00 0.00 0.00 0.00 0.00 0.00 0.00 0.00 0.00 0.00 0.02 0.01 0.01 0.04 0.06 0.22 0.18 0.33 0.16 0.22 0.59
0.00 0.01 0.02 0.00 0.00 0.00 0.00 0.00 0.00 0.00 0.00 0.00 0.00 0.00 0.00 0.00 0.00 0.00 0.00 0.00 0.00 0.00 0.00 0.00 0.00 0.00 0.00 0.00 0.00 0.00 0.00 0.00 0.00 0.00 0.01 0.00 0.01 0.00 0.01 0.02 0.17 0.17 0.46 1.22 0.81
0.00 0.00 0.00 0.00 0.00 0.00 0.00 0.00 0.00 0.00 0.00 0.00 0.00 0.00 0.00 0.00 0.00 0.00 0.00 0.00 0.00 0.00 0.00 0.00 0.00 0.00 0.00 0.00 0.00 0.00 0.00 0.00 0.00 0.00 0.00 0.00 0.00 0.02 0.03 0.05 0.10 0.31 0.84 1.17 0.70
0.00 0.00 0.00 0.00 0.00 0.00 0.00 0.00 0.00 0.00 0.00 0.00 0.00 0.00 0.00 0.00 0.00 0.00 0.00 0.00 0.00 0.00 0.00 0.00 0.00 0.00 0.00 0.00 0.00 0.00 0.00 0.00 0.00 0.00 0.00 0.00 0.00 0.01 0.02 0.08 0.23 0.41 0.48 0.64 0.97
0.00 0.00 0.00 0.00 0.00 0.00 0.00 0.00 0.00 0.00 0.00 0.00 0.00 0.00 0.00 0.00 0.00 0.00 0.00 0.00 0.00 0.00 0.00 0.00 0.00 0.00 0.00 0.00 0.00 0.00 0.00 0.00 0.00 0.00 0.00 0.00 0.01 0.05 0.17 0.24 0.55 0.28 0.29 0.66 0.82
0.00 0.00 0.00 0.00 0.00 0.00 0.00 0.00 0.00 0.00 0.00 0.00 0.00 0.00 0.00 0.00 0.00 0.00 0.00 0.00 0.00 0.00 0.00 0.00 0.00 0.00 0.00 0.00 0.00 0.00 0.00 0.00 0.00 0.00 0.01 0.01 0.07 0.09 0.16 0.40 0.37 0.19 0.42 0.72 0.73
0.00 0.00 0.00 0.00 0.00 0.00 0.00 0.00 0.00 0.00 0.00 0.00 0.00 0.00 0.00 0.00 0.00 0.00 0.00 0.00 0.00 0.00 0.00 0.00 0.00 0.00 0.00 0.00 0.00 0.00 0.02 0.05 0.02 0.06 0.04 0.01 0.11 0.27 0.31 0.31 0.38 0.81 1.72 1.41 1.05
0.00 0.00 0.00 0.00 0.00 0.00 0.00 0.00 0.00 0.00 0.00 0.00 0.00 0.00 0.00 0.00 0.00 0.00 0.00 0.00 0.00 0.00 0.00 0.00 0.00 0.00 0.00 0.00 0.01 0.04 0.06 0.07 0.02 0.01 0.04 0.21 0.21 0.32 0.42 0.67 1.27 1.68 1.79 1.40 1.36
0.00 0.00 0.00 0.00 0.00 0.00 0.01 0.00 0.03 0.02 0.02 0.02 0.00 0.00 0.00 0.00 0.00 0.00 0.00 0.00 0.00 0.00 0.00 0.00 0.01 0.00 0.01 0.01 0.00 0.00 0.00 0.01 0.02 0.02 0.05 0.23 0.22 0.48 0.59 0.49 1.22 1.52 2.06 2.39 2.37
0.00 0.01 0.06 0.07 0.05 0.02 0.06 0.03 0.06 0.19 0.17 0.10 0.07 0.00 0.00 0.00 0.00 0.00 0.00 0.00 0.00 0.00 0.00 0.00 0.00 0.01 0.01 0.02 0.01 0.01 0.00 0.02 0.01 0.04 0.16 0.09 0.22 0.84 1.29 0.63 0.87 1.37 3.22 3.22 2.29
0.04 0.09 0.06 0.02 0.07 0.06 0.10 0.30 0.35 0.16 0.21 0.20 0.22 0.22 0.02 0.00 0.00 0.00 0.00 0.00 0.00 0.00 0.00 0.00 0.00 0.00 0.01 0.02 0.01 0.03 0.09 0.03 0.02 0.02 0.03 0.04 0.16 0.67 0.58 0.43 0.60 0.79 1.50 2.02 1.95
0.15 0.16 0.19 0.03 0.00 0.15 0.24 0.25 0.28 0.20 0.09 0.23 0.15 0.24 0.08 0.02 0.01 0.00 0.00 0.00 0.00 0.00 0.00 0.00 0.00 0.00 0.00 0.02 0.02 0.05 0.13 0.15 0.21 0.25 0.21 0.35 0.57 0.80 0.73 1.10 0.75 0.70 0.75 0.66 0.75

GFSSW_prec_precacc_279.txt.gz
Total_Precipitation_Accumulation
0.07 0.06 0.07 0.06 0.06 0.05 0.03 0.03 0.02 0.01 0.01 0.01 0.01 0.00 0.00 0.00 0.00 0.00 0.00 0.00 0.00 0.00 0.00 0.02 0.15 0.33 0.49 0.50 0.57 0.61 1.64 0.41 0.09 0.22 0.07 0.01 0.04 0.03 0.02 0.00 0.02 0.05 0.15 0.03 0.01
0.07 0.06 0.06 0.07 0.05 0.05 0.03 0.03 0.01 0.01 0.01 0.01 0.01 0.00 0.00 0.00 0.00 0.00 0.00 0.00 0.00 0.00 0.04 0.06 0.08 0.17 0.72 0.52 0.58 0.50 0.83 0.10 0.02 0.07 0.07 0.02 0.03 0.03 0.04 0.04 0.11 0.00 0.02 0.00 0.00
0.05 0.05 0.06 0.06 0.05 0.04 0.03 0.03 0.01 0.01 0.00 0.01 0.01 0.00 0.00 0.00 0.00 0.00 0.00 0.00 0.00 0.04 0.05 0.04 0.03 0.05 0.23 0.44 0.90 0.27 0.36 0.01 0.01 0.00 0.03 0.07 0.01 0.02 0.07 0.17 0.12 0.00 0.00 0.00 0.00
0.05 0.05 0.05 0.05 0.05 0.05 0.03 0.02 0.01 0.00 0.01 0.01 0.00 0.00 0.00 0.00 0.00 0.00 0.00 0.00 0.01 0.03 0.01 0.03 0.04 0.08 0.10 0.27 0.13 0.34 0.07 0.00 0.00 0.00 0.02 0.03 0.00 0.00 0.01 0.04 0.00 0.00 0.00 0.00 0.01
0.04 0.04 0.04 0.04 0.05 0.05 0.03 0.02 0.01 0.00 0.01 0.01 0.00 0.00 0.00 0.00 0.00 0.00 0.00 0.00 0.02 0.00 0.00 0.00 0.01 0.02 0.11 0.12 0.12 0.14 0.03 0.01 0.00 0.00 0.00 0.00 0.00 0.00 0.01 0.04 0.04 0.00 0.00 0.00 0.00
0.04 0.04 0.03 0.04 0.05 0.04 0.03 0.02 0.01 0.00 0.00 0.00 0.00 0.00 0.00 0.00 0.00 0.00 0.00 0.00 0.01 0.01 0.00 0.00 0.00 0.00 0.03 0.06 0.14 0.08 0.03 0.02 0.02 0.01 0.01 0.00 0.00 0.00 0.00 0.05 0.06 0.02 0.00 0.00 0.01
0.04 0.03 0.03 0.03 0.04 0.03 0.02 0.01 0.00 0.00 0.00 0.00 0.00 0.00 0.00 0.00 0.00 0.00 0.00 0.00 0.00 0.01 0.01 0.00 0.00 0.00 0.01 0.09 0.10 0.04 0.06 0.02 0.01 0.03 0.01 0.01 0.02 0.01 0.01 0.01 0.02 0.02 0.06 0.12 0.15
0.03 0.03 0.04 0.03 0.03 0.03 0.01 0.00 0.00 0.00 0.00 0.00 0.00 0.00 0.00 0.00 0.00 0.00 0.00 0.00 0.00 0.00 0.00 0.00 0.00 0.00 0.01 0.10 0.16 0.14 0.12 0.10 0.04 0.03 0.04 0.07 0.29 0.04 0.01 0.02 0.05 0.12 0.21 0.32 0.31
0.03 0.03 0.03 0.03 0.03 0.02 0.01 0.00 0.00 0.00 0.00 0.00 0.00 0.00 0.00 0.00 0.00 0.00 0.00 0.00 0.00 0.00 0.00 0.00 0.00 0.00 0.00 0.03 0.15 0.14 0.42 0.35 0.20 0.03 0.11 0.17 0.50 0.15 0.02 0.07 0.05 0.17 0.59 0.48 0.36
0.03 0.03 0.02 0.03 0.03 0.02 0.00 0.00 0.00 0.00 0.00 0.00 0.00 0.00 0.00 0.00 0.00 0.00 0.00 0.00 0.00 0.00 0.00 0.00 0.00 0.00 0.00 0.01 0.13 0.11 0.13 0.13 0.17 0.10 0.10 0.19 0.70 0.52 0.06 0.02 0.06 0.29 0.99 0.26 0.19
0.03 0.03 0.03 0.02 0.02 0.02 0.00 0.01 0.00 0.00 0.00 0.00 0.00 0.00 0.00 0.00 0.00 0.00 0.00 0.00 0.00 0.00 0.00 0.00 0.00 0.00 0.00 0.00 0.00 0.03 0.03 0.10 0.11 0.11 0.09 0.20 0.44 0.41 0.08 0.13 0.06 0.18 0.69 0.37 0.11
0.03 0.03 0.02 0.01 0.00 0.00 0.00 0.00 0.00 0.00 0.00 0.00 0.00 0.00 0.00 0.00 0.00 0.00 0.00 0.00 0.00 0.00 0.00 0.00 0.00 0.00 0.00 0.00 0.00 0.00 0.00 0.05 0.05 0.03 0.07 0.24 0.18 0.14 0.05 0.26 0.29 0.05 0.30 0.21 0.27
0.03 0.03 0.03 0.00 0.00 0.00 0.00 0.00 0.00 0.00 0.00 0.00 0.00 0.00 0.00 0.00 0.00 0.00 0.00 0.00 0.00 0.00 0.00 0.00 0.00 0.00 0.00 0.00 0.00 0.00 0.00 0.00 0.02 0.04 0.06 0.05 0.12 0.16 0.13 0.07 0.12 0.06 0.05 0.15 0.30
0.03 0.03 0.03 0.00 0.00 0.00 0.00 0.00 0.00 0.00 0.00 0.00 0.00 0.00 0.00 0.00 0.00 0.00 0.00 0.00 0.00 0.00 0.00 0.00 0.00 0.00 0.00 0.00 0.00 0.00 0.01 0.00 0.00 0.03 0.05 0.03 0.20 0.28 0.26 0.08 0.16 0.13 0.09 0.04 0.11
0.03 0.03 0.03 0.00 0.00 0.00 0.00 0.00 0.00 0.00 0.00 0.00 0.00 0.00 0.00 0.00 0.00 0.00 0.00 0.00 0.00 0.00 0.00 0.00 0.00 0.00 0.00 0.00 0.00 0.00 0.00 0.00 0.00 0.00 0.01 0.02 0.09 0.18 0.15 0.22 0.44 0.22 0.19 0.17 0.12
0.02 0.03 0.03 0.00 0.00 0.00 0.00 0.00 0.00 0.00 0.00 0.00 0.00 0.00 0.00 0.00 0.00 0.00 0.00 0.00 0.00 0.00 0.00 0.00 0.00 0.00 0.00 0.00 0.00 0.00 0.00 0.00 0.00 0.00 0.02 0.01 0.01 0.04 0.06 0.22 0.18 0.33 0.16 0.22 0.59
0.01 0.01 0.02 0.00 0.00 0.00 0.00 0.00 0.00 0.00 0.00 0.00 0.00 0.00 0.00 0.00 0.00 0.00 0.00 0.00 0.00 0.00 0.00 0.00 0.00 0.00 0.00 0.00 0.00 0.00 0.00 0.00 0.00 0.00 0.01 0.00 0.01 0.00 0.01 0.02 0.17 0.17 0.46 1.22 0.81
0.00 0.00 0.00 0.00 0.00 0.00 0.00 0.00 0.00 0.00 0.00 0.00 0.00 0.00 0.00 0.00 0.00 0.00 0.00 0.00 0.00 0.00 0.00 0.00 0.00 0.00 0.00 0.00 0.00 0.00 0.00 0.00 0.00 0.00 0.00 0.00 0.00 0.02 0.03 0.05 0.10 0.31 0.84 1.17 0.70
0.00 0.00 0.00 0.00 0.00 0.00 0.00 0.00 0.00 0.00 0.00 0.00 0.00 0.00 0.00 0.00 0.00 0.00 0.00 0.00 0.00 0.00 0.00 0.00 0.00 0.00 0.00 0.00 0.00 0.00 0.00 0.00 0.00 0.00 0.00 0.00 0.00 0.01 0.02 0.08 0.23 0.41 0.48 0.64 0.97
0.00 0.00 0.00 0.00 0.00 0.00 0.00 0.00 0.00 0.00 0.00 0.00 0.00 0.00 0.00 0.00 0.00 0.00 0.00 0.00 0.00 0.00 0.00 0.00 0.00 0.00 0.00 0.00 0.00 0.00 0.00 0.00 0.00 0.00 0.00 0.00 0.01 0.05 0.17 0.24 0.55 0.28 0.29 0.66 0.82
0.00 0.00 0.00 0.00 0.00 0.00 0.00 0.00 0.00 0.00 0.00 0.00 0.00 0.00 0.00 0.00 0.00 0.00 0.00 0.00 0.00 0.00 0.00 0.00 0.00 0.00 0.00 0.00 0.00 0.00 0.00 0.00 0.00 0.00 0.01 0.01 0.07 0.09 0.16 0.40 0.37 0.19 0.42 0.72 0.73
0.00 0.00 0.00 0.00 0.00 0.00 0.00 0.00 0.00 0.00 0.00 0.00 0.00 0.00 0.00 0.00 0.00 0.00 0.00 0.00 0.00 0.00 0.00 0.00 0.00 0.00 0.00 0.00 0.00 0.00 0.02 0.05 0.02 0.06 0.04 0.01 0.11 0.27 0.31 0.31 0.38 0.81 1.72 1.41 1.05
0.00 0.00 0.00 0.00 0.00 0.00 0.00 0.00 0.00 0.00 0.00 0.00 0.00 0.00 0.00 0.00 0.00 0.00 0.00 0.00 0.00 0.00 0.00 0.00 0.00 0.00 0.00 0.00 0.01 0.04 0.06 0.07 0.02 0.01 0.04 0.21 0.21 0.32 0.42 0.67 1.27 1.68 1.79 1.40 1.36
0.00 0.00 0.00 0.00 0.00 0.00 0.01 0.00 0.03 0.02 0.02 0.02 0.00 0.00 0.00 0.00 0.00 0.00 0.00 0.00 0.00 0.00 0.00 0.00 0.01 0.00 0.01 0.01 0.00 0.00 0.00 0.01 0.02 0.02 0.05 0.23 0.22 0.48 0.59 0.49 1.22 1.52 2.06 2.39 2.37
0.00 0.01 0.06 0.07 0.05 0.02 0.06 0.03 0.06 0.19 0.17 0.10 0.07 0.00 0.00 0.00 0.00 0.00 0.00 0.00 0.00 0.00 0.00 0.00 0.00 0.01 0.01 0.02 0.01 0.01 0.00 0.02 0.01 0.04 0.16 0.09 0.22 0.84 1.29 0.63 0.87 1.37 3.22 3.22 2.29
0.04 0.09 0.06 0.02 0.07 0.06 0.10 0.30 0.35 0.16 0.21 0.20 0.22 0.22 0.02 0.00 0.00 0.00 0.00 0.00 0.00 0.00 0.00 0.00 0.00 0.00 0.01 0.02 0.01 0.03 0.09 0.03 0.02 0.02 0.03 0.04 0.16 0.67 0.58 0.43 0.60 0.79 1.50 2.02 1.95
0.15 0.16 0.19 0.03 0.00 0.15 0.24 0.25 0.28 0.20 0.09 0.23 0.15 0.24 0.08 0.02 0.01 0.00 0.00 0.00 0.00 0.00 0.00 0.00 0.00 0.00 0.00 0.02 0.02 0.05 0.13 0.15 0.21 0.25 0.21 0.35 0.57 0.80 0.73 1.10 0.75 0.70 0.75 0.66 0.75

GFSSW_prec_precacc_282.txt.gz
Total_Precipitation_Accumulation
0.07 0.06 0.07 0.06 0.06 0.06 0.03 0.03 0.02 0.01 0.01 0.01 0.01 0.00 0.00 0.00 0.00 0.00 0.00 0.00 0.00 0.00 0.00 0.02 0.15 0.33 0.49 0.50 0.57 0.61 1.64 0.41 0.09 0.22 0.07 0.01 0.04 0.03 0.02 0.00 0.02 0.05 0.15 0.03 0.01
0.07 0.06 0.06 0.07 0.06 0.05 0.03 0.03 0.01 0.01 0.01 0.01 0.01 0.00 0.00 0.00 0.00 0.00 0.00 0.00 0.00 0.00 0.04 0.06 0.08 0.17 0.72 0.52 0.58 0.50 0.83 0.10 0.02 0.07 0.07 0.02 0.03 0.03 0.04 0.04 0.11 0.00 0.02 0.00 0.00
0.05 0.05 0.06 0.06 0.06 0.04 0.03 0.03 0.01 0.01 0.00 0.01 0.01 0.00 0.00 0.00 0.00 0.00 0.00 0.00 0.00 0.04 0.05 0.04 0.03 0.05 0.23 0.44 0.90 0.27 0.36 0.01 0.01 0.00 0.03 0.07 0.01 0.02 0.07 0.17 0.12 0.00 0.00 0.00 0.00
0.05 0.05 0.05 0.05 0.05 0.05 0.04 0.02 0.01 0.00 0.01 0.01 0.00 0.00 0.00 0.00 0.00 0.00 0.00 0.00 0.01 0.03 0.01 0.03 0.04 0.08 0.10 0.27 0.13 0.34 0.07 0.00 0.00 0.00 0.02 0.03 0.00 0.00 0.01 0.04 0.00 0.00 0.00 0.00 0.01
0.04 0.04 0.04 0.04 0.05 0.05 0.03 0.02 0.01 0.00 0.01 0.01 0.00 0.00 0.00 0.00 0.00 0.00 0.00 0.00 0.02 0.00 0.00 0.00 0.01 0.02 0.11 0.12 0.12 0.14 0.03 0.01 0.00 0.00 0.00 0.00 0.00 0.00 0.01 0.04 0.04 0.00 0.00 0.00 0.00
0.04 0.04 0.03 0.04 0.05 0.04 0.03 0.02 0.01 0.00 0.00 0.00 0.00 0.00 0.00 0.00 0.00 0.00 0.00 0.00 0.01 0.01 0.00 0.00 0.00 0.00 0.03 0.06 0.14 0.08 0.03 0.02 0.02 0.01 0.01 0.00 0.00 0.00 0.00 0.05 0.06 0.02 0.00 0.00 0.01
0.04 0.03 0.03 0.03 0.04 0.03 0.02 0.01 0.00 0.00 0.00 0.00 0.00 0.00 0.00 0.00 0.00 0.00 0.00 0.00 0.00 0.01 0.01 0.00 0.00 0.00 0.01 0.09 0.10 0.04 0.06 0.02 0.01 0.03 0.01 0.01 0.02 0.01 0.01 0.01 0.02 0.02 0.06 0.12 0.15
0.03 0.03 0.04 0.03 0.03 0.03 0.01 0.00 0.00 0.00 0.00 0.00 0.00 0.00 0.00 0.00 0.00 0.00 0.00 0.00 0.00 0.00 0.00 0.00 0.00 0.00 0.01 0.10 0.16 0.14 0.12 0.10 0.04 0.03 0.04 0.07 0.29 0.04 0.01 0.02 0.05 0.12 0.21 0.32 0.31
0.03 0.03 0.03 0.03 0.03 0.02 0.01 0.00 0.00 0.00 0.00 0.00 0.00 0.00 0.00 0.00 0.00 0.00 0.00 0.00 0.00 0.00 0.00 0.00 0.00 0.00 0.00 0.03 0.15 0.14 0.42 0.35 0.20 0.03 0.11 0.17 0.50 0.15 0.02 0.07 0.05 0.17 0.59 0.48 0.36
0.03 0.03 0.02 0.03 0.03 0.02 0.00 0.00 0.00 0.00 0.00 0.00 0.00 0.00 0.00 0.00 0.00 0.00 0.00 0.00 0.00 0.00 0.00 0.00 0.00 0.00 0.00 0.01 0.13 0.11 0.13 0.13 0.17 0.10 0.10 0.19 0.70 0.52 0.06 0.02 0.06 0.29 0.99 0.26 0.19
0.03 0.03 0.03 0.02 0.02 0.02 0.00 0.01 0.00 0.00 0.00 0.00 0.00 0.00 0.00 0.00 0.00 0.00 0.00 0.00 0.00 0.00 0.00 0.00 0.00 0.00 0.00 0.00 0.00 0.03 0.03 0.10 0.11 0.11 0.09 0.20 0.44 0.41 0.08 0.13 0.06 0.18 0.69 0.37 0.11
0.03 0.03 0.02 0.01 0.00 0.00 0.00 0.00 0.00 0.00 0.00 0.00 0.00 0.00 0.00 0.00 0.00 0.00 0.00 0.00 0.00 0.00 0.00 0.00 0.00 0.00 0.00 0.00 0.00 0.00 0.00 0.05 0.05 0.03 0.07 0.24 0.18 0.14 0.05 0.26 0.29 0.05 0.30 0.21 0.27
0.03 0.03 0.03 0.00 0.00 0.00 0.00 0.00 0.00 0.00 0.00 0.00 0.00 0.00 0.00 0.00 0.00 0.00 0.00 0.00 0.00 0.00 0.00 0.00 0.00 0.00 0.00 0.00 0.00 0.00 0.00 0.00 0.02 0.04 0.06 0.05 0.12 0.16 0.13 0.07 0.12 0.06 0.05 0.15 0.30
0.04 0.03 0.03 0.00 0.00 0.00 0.00 0.00 0.00 0.00 0.00 0.00 0.00 0.00 0.00 0.00 0.00 0.00 0.00 0.00 0.00 0.00 0.00 0.00 0.00 0.00 0.00 0.00 0.00 0.00 0.01 0.00 0.00 0.03 0.05 0.03 0.20 0.28 0.26 0.08 0.16 0.13 0.09 0.04 0.11
0.04 0.03 0.03 0.00 0.00 0.00 0.00 0.00 0.00 0.00 0.00 0.00 0.00 0.00 0.00 0.00 0.00 0.00 0.00 0.00 0.00 0.00 0.00 0.00 0.00 0.00 0.00 0.00 0.00 0.00 0.00 0.00 0.00 0.00 0.01 0.02 0.09 0.18 0.15 0.22 0.44 0.22 0.19 0.17 0.12
0.02 0.04 0.04 0.00 0.00 0.00 0.00 0.00 0.00 0.00 0.00 0.00 0.00 0.00 0.00 0.00 0.00 0.00 0.00 0.00 0.00 0.00 0.00 0.00 0.00 0.00 0.00 0.00 0.00 0.00 0.00 0.00 0.00 0.00 0.02 0.01 0.01 0.04 0.06 0.22 0.18 0.33 0.16 0.22 0.59
0.01 0.01 0.02 0.00 0.00 0.00 0.00 0.00 0.00 0.00 0.00 0.00 0.00 0.00 0.00 0.00 0.00 0.00 0.00 0.00 0.00 0.00 0.00 0.00 0.00 0.00 0.00 0.00 0.00 0.00 0.00 0.00 0.00 0.00 0.01 0.00 0.01 0.00 0.01 0.02 0.17 0.17 0.46 1.22 0.81
0.00 0.00 0.00 0.00 0.00 0.00 0.00 0.00 0.00 0.00 0.00 0.00 0.00 0.00 0.00 0.00 0.00 0.00 0.00 0.00 0.00 0.00 0.00 0.00 0.00 0.00 0.00 0.00 0.00 0.00 0.00 0.00 0.00 0.00 0.00 0.00 0.00 0.02 0.03 0.05 0.10 0.31 0.84 1.17 0.70
0.00 0.00 0.00 0.00 0.00 0.00 0.00 0.00 0.00 0.00 0.00 0.00 0.00 0.00 0.00 0.00 0.00 0.00 0.00 0.00 0.00 0.00 0.00 0.00 0.00 0.00 0.00 0.00 0.00 0.00 0.00 0.00 0.00 0.00 0.00 0.00 0.00 0.01 0.02 0.08 0.23 0.41 0.48 0.64 0.97
0.00 0.00 0.00 0.00 0.00 0.00 0.00 0.00 0.00 0.00 0.00 0.00 0.00 0.00 0.00 0.00 0.00 0.00 0.00 0.00 0.00 0.00 0.00 0.00 0.00 0.00 0.00 0.00 0.00 0.00 0.00 0.00 0.00 0.00 0.00 0.00 0.01 0.05 0.17 0.24 0.55 0.28 0.29 0.66 0.82
0.00 0.00 0.00 0.00 0.00 0.00 0.00 0.00 0.00 0.00 0.00 0.00 0.00 0.00 0.00 0.00 0.00 0.00 0.00 0.00 0.00 0.00 0.00 0.00 0.00 0.00 0.00 0.00 0.00 0.00 0.00 0.00 0.00 0.00 0.01 0.01 0.07 0.09 0.16 0.40 0.37 0.19 0.42 0.72 0.73
0.00 0.00 0.00 0.00 0.00 0.00 0.00 0.00 0.00 0.00 0.00 0.00 0.00 0.00 0.00 0.00 0.00 0.00 0.00 0.00 0.00 0.00 0.00 0.00 0.00 0.00 0.00 0.00 0.00 0.00 0.02 0.05 0.02 0.06 0.04 0.01 0.11 0.27 0.31 0.31 0.38 0.81 1.72 1.41 1.05
0.00 0.00 0.00 0.00 0.00 0.00 0.00 0.00 0.00 0.00 0.00 0.00 0.00 0.00 0.00 0.00 0.00 0.00 0.00 0.00 0.00 0.00 0.00 0.00 0.00 0.00 0.00 0.00 0.01 0.04 0.06 0.07 0.02 0.01 0.04 0.21 0.21 0.32 0.42 0.67 1.27 1.68 1.79 1.40 1.36
0.00 0.00 0.00 0.00 0.00 0.00 0.01 0.00 0.03 0.02 0.02 0.02 0.00 0.00 0.00 0.00 0.00 0.00 0.00 0.00 0.00 0.00 0.00 0.00 0.01 0.00 0.01 0.01 0.00 0.00 0.00 0.01 0.02 0.02 0.05 0.23 0.22 0.48 0.59 0.49 1.22 1.52 2.06 2.39 2.37
0.00 0.01 0.06 0.07 0.05 0.02 0.06 0.03 0.06 0.19 0.17 0.10 0.07 0.00 0.00 0.00 0.00 0.00 0.00 0.00 0.00 0.00 0.00 0.00 0.00 0.01 0.01 0.02 0.01 0.01 0.00 0.02 0.01 0.04 0.16 0.09 0.22 0.84 1.29 0.63 0.87 1.37 3.22 3.22 2.29
0.04 0.09 0.06 0.02 0.07 0.06 0.10 0.30 0.35 0.16 0.21 0.20 0.22 0.22 0.02 0.00 0.00 0.00 0.00 0.00 0.00 0.00 0.00 0.00 0.00 0.00 0.01 0.02 0.01 0.03 0.09 0.03 0.02 0.02 0.03 0.04 0.16 0.67 0.58 0.43 0.60 0.79 1.50 2.02 1.95
0.15 0.16 0.19 0.03 0.00 0.15 0.24 0.25 0.28 0.20 0.09 0.23 0.15 0.24 0.08 0.02 0.01 0.00 0.00 0.00 0.00 0.00 0.00 0.00 0.00 0.00 0.00 0.02 0.02 0.05 0.13 0.15 0.21 0.25 0.21 0.35 0.57 0.80 0.73 1.10 0.75 0.70 0.75 0.66 0.75

GFSSW_prec_precacc_285.txt.gz
Total_Precipitation_Accumulation
0.07 0.06 0.07 0.06 0.06 0.06 0.03 0.03 0.02 0.01 0.01 0.01 0.01 0.00 0.00 0.00 0.00 0.00 0.00 0.00 0.00 0.00 0.00 0.02 0.15 0.33 0.49 0.50 0.57 0.61 1.64 0.41 0.09 0.22 0.07 0.01 0.04 0.03 0.02 0.00 0.02 0.05 0.15 0.03 0.01
0.07 0.06 0.06 0.07 0.06 0.05 0.03 0.03 0.01 0.01 0.01 0.01 0.01 0.00 0.00 0.00 0.00 0.00 0.00 0.00 0.00 0.00 0.04 0.06 0.08 0.17 0.72 0.52 0.58 0.51 0.83 0.10 0.02 0.07 0.07 0.02 0.03 0.03 0.04 0.04 0.11 0.00 0.02 0.00 0.00
0.05 0.05 0.06 0.06 0.06 0.04 0.03 0.03 0.01 0.01 0.00 0.01 0.01 0.00 0.00 0.00 0.00 0.00 0.00 0.00 0.00 0.04 0.05 0.04 0.03 0.05 0.23 0.44 0.91 0.28 0.36 0.01 0.01 0.00 0.03 0.07 0.01 0.02 0.07 0.17 0.12 0.00 0.00 0.00 0.00
0.05 0.05 0.05 0.05 0.05 0.05 0.04 0.02 0.01 0.00 0.01 0.01 0.00 0.00 0.00 0.00 0.00 0.00 0.00 0.00 0.01 0.03 0.01 0.03 0.04 0.09 0.11 0.27 0.14 0.35 0.07 0.00 0.00 0.00 0.02 0.03 0.00 0.00 0.01 0.04 0.00 0.00 0.00 0.00 0.01
0.04 0.04 0.04 0.04 0.05 0.05 0.03 0.02 0.01 0.00 0.01 0.01 0.00 0.00 0.00 0.00 0.00 0.00 0.00 0.00 0.02 0.00 0.00 0.00 0.01 0.02 0.12 0.12 0.12 0.14 0.03 0.01 0.00 0.00 0.00 0.00 0.00 0.00 0.01 0.04 0.04 0.00 0.00 0.00 0.00
0.04 0.04 0.03 0.04 0.05 0.04 0.03 0.02 0.01 0.00 0.00 0.00 0.00 0.00 0.00 0.00 0.00 0.00 0.00 0.00 0.01 0.01 0.00 0.00 0.00 0.00 0.04 0.06 0.15 0.08 0.03 0.02 0.02 0.01 0.01 0.00 0.00 0.00 0.00 0.05 0.06 0.02 0.00 0.00 0.01
0.04 0.03 0.03 0.03 0.04 0.03 0.02 0.01 0.00 0.00 0.00 0.00 0.00 0.00 0.00 0.00 0.00 0.00 0.00 0.00 0.00 0.01 0.01 0.00 0.00 0.00 0.02 0.10 0.10 0.04 0.06 0.02 0.01 0.03 0.01 0.01 0.02 0.01 0.01 0.01 0.02 0.02 0.06 0.12 0.15
0.03 0.03 0.04 0.03 0.03 0.03 0.01 0.00 0.00 0.00 0.00 0.00 0.00 0.00 0.00 0.00 0.00 0.00 0.00 0.00 0.00 0.00 0.00 0.00 0.00 0.00 0.02 0.10 0.16 0.14 0.12 0.11 0.04 0.03 0.04 0.07 0.29 0.04 0.01 0.02 0.05 0.12 0.21 0.32 0.31
0.03 0.03 0.03 0.03 0.03 0.02 0.01 0.00 0.00 0.00 0.00 0.00 0.00 0.00 0.00 0.00 0.00 0.00 0.00 0.00 0.00 0.00 0.00 0.00 0.00 0.00 0.00 0.05 0.17 0.16 0.43 0.36 0.21 0.03 0.11 0.18 0.50 0.15 0.02 0.07 0.05 0.17 0.59 0.48 0.36
0.03 0.03 0.02 0.03 0.03 0.02 0.00 0.00 0.00 0.00 0.00 0.00 0.00 0.00 0.00 0.00 0.00 0.00 0.00 0.00 0.00 0.00 0.00 0.00 0.00 0.00 0.00 0.04 0.14 0.12 0.13 0.13 0.18 0.11 0.10 0.19 0.70 0.52 0.06 0.02 0.06 0.29 0.99 0.26 0.19
0.03 0.03 0.03 0.02 0.02 0.02 0.00 0.01 0.00 0.00 0.00 0.00 0.00 0.00 0.00 0.00 0.00 0.00 0.00 0.00 0.00 0.00 0.00 0.00 0.00 0.00 0.01 0.01 0.00 0.03 0.04 0.10 0.11 0.11 0.09 0.20 0.44 0.41 0.08 0.13 0.06 0.18 0.69 0.37 0.11
0.03 0.03 0.02 0.01 0.00 0.00 0.00 0.00 0.00 0.00 0.00 0.00 0.00 0.00 0.00 0.00 0.00 0.00 0.00 0.00 0.00 0.00 0.00 0.00 0.00 0.00 0.00 0.00 0.00 0.00 0.00 0.05 0.06 0.03 0.07 0.24 0.18 0.14 0.05 0.26 0.29 0.05 0.30 0.21 0.27
0.03 0.03 0.03 0.00 0.00 0.00 0.00 0.00 0.00 0.00 0.00 0.00 0.00 0.00 0.00 0.00 0.00 0.00 0.00 0.00 0.00 0.00 0.00 0.00 0.00 0.00 0.00 0.00 0.00 0.00 0.00 0.00 0.03 0.04 0.06 0.05 0.13 0.16 0.13 0.07 0.12 0.06 0.05 0.15 0.30
0.04 0.03 0.03 0.00 0.00 0.00 0.00 0.00 0.00 0.00 0.00 0.00 0.00 0.00 0.00 0.00 0.00 0.00 0.00 0.00 0.00 0.00 0.00 0.00 0.00 0.00 0.00 0.00 0.00 0.00 0.01 0.00 0.00 0.03 0.06 0.03 0.26 0.28 0.26 0.08 0.16 0.13 0.09 0.04 0.11
0.04 0.03 0.03 0.00 0.00 0.00 0.00 0.00 0.00 0.00 0.00 0.00 0.00 0.00 0.00 0.00 0.00 0.00 0.00 0.00 0.00 0.00 0.00 0.00 0.00 0.00 0.00 0.00 0.00 0.00 0.00 0.00 0.00 0.00 0.01 0.02 0.09 0.18 0.15 0.22 0.44 0.22 0.19 0.17 0.12
0.02 0.04 0.04 0.00 0.00 0.00 0.00 0.00 0.00 0.00 0.00 0.00 0.00 0.00 0.00 0.00 0.00 0.00 0.00 0.00 0.00 0.00 0.00 0.00 0.00 0.00 0.00 0.00 0.00 0.00 0.00 0.00 0.00 0.00 0.02 0.01 0.01 0.04 0.06 0.22 0.18 0.33 0.16 0.22 0.59
0.01 0.01 0.02 0.00 0.00 0.00 0.00 0.00 0.00 0.00 0.00 0.00 0.00 0.00 0.00 0.00 0.00 0.00 0.00 0.00 0.00 0.00 0.00 0.00 0.00 0.00 0.00 0.00 0.00 0.00 0.00 0.00 0.00 0.00 0.01 0.00 0.01 0.00 0.01 0.02 0.17 0.17 0.46 1.22 0.81
0.00 0.00 0.00 0.00 0.00 0.00 0.00 0.00 0.00 0.00 0.00 0.00 0.00 0.00 0.00 0.00 0.00 0.00 0.00 0.00 0.00 0.00 0.00 0.00 0.00 0.00 0.00 0.00 0.00 0.00 0.00 0.00 0.00 0.00 0.00 0.00 0.00 0.02 0.03 0.05 0.10 0.31 0.84 1.17 0.70
0.00 0.00 0.00 0.00 0.00 0.00 0.00 0.00 0.00 0.00 0.00 0.00 0.00 0.00 0.00 0.00 0.00 0.00 0.00 0.00 0.00 0.00 0.00 0.00 0.00 0.00 0.00 0.00 0.00 0.00 0.00 0.00 0.00 0.00 0.00 0.00 0.00 0.01 0.02 0.08 0.23 0.41 0.48 0.64 0.97
0.00 0.00 0.00 0.00 0.00 0.00 0.00 0.00 0.00 0.00 0.00 0.00 0.00 0.00 0.00 0.00 0.00 0.00 0.00 0.00 0.00 0.00 0.00 0.00 0.00 0.00 0.00 0.00 0.00 0.00 0.00 0.00 0.00 0.00 0.00 0.00 0.01 0.05 0.17 0.24 0.55 0.28 0.29 0.66 0.82
0.00 0.00 0.00 0.00 0.00 0.00 0.00 0.00 0.00 0.00 0.00 0.00 0.00 0.00 0.00 0.00 0.00 0.00 0.00 0.00 0.00 0.00 0.00 0.00 0.00 0.00 0.00 0.00 0.00 0.00 0.00 0.00 0.00 0.00 0.01 0.01 0.07 0.09 0.16 0.40 0.37 0.19 0.42 0.72 0.73
0.00 0.00 0.00 0.00 0.00 0.00 0.00 0.00 0.00 0.00 0.00 0.00 0.00 0.00 0.00 0.00 0.00 0.00 0.00 0.00 0.00 0.00 0.00 0.00 0.00 0.00 0.00 0.00 0.00 0.00 0.02 0.05 0.02 0.06 0.04 0.01 0.11 0.27 0.31 0.31 0.38 0.81 1.72 1.41 1.05
0.00 0.00 0.00 0.00 0.00 0.00 0.00 0.00 0.00 0.00 0.00 0.00 0.00 0.00 0.00 0.00 0.00 0.00 0.00 0.00 0.00 0.00 0.00 0.00 0.00 0.00 0.00 0.00 0.01 0.04 0.06 0.07 0.02 0.01 0.04 0.21 0.21 0.32 0.42 0.67 1.27 1.68 1.79 1.40 1.36
0.00 0.00 0.00 0.00 0.00 0.00 0.01 0.00 0.03 0.02 0.02 0.02 0.00 0.00 0.00 0.00 0.00 0.00 0.00 0.00 0.00 0.00 0.00 0.00 0.01 0.00 0.01 0.01 0.00 0.00 0.00 0.01 0.02 0.02 0.05 0.23 0.22 0.48 0.59 0.49 1.22 1.52 2.06 2.39 2.37
0.00 0.01 0.06 0.07 0.05 0.02 0.06 0.03 0.06 0.19 0.17 0.10 0.07 0.00 0.00 0.00 0.00 0.00 0.00 0.00 0.00 0.00 0.00 0.00 0.00 0.01 0.01 0.02 0.01 0.01 0.00 0.02 0.01 0.04 0.16 0.09 0.22 0.84 1.29 0.63 0.87 1.37 3.22 3.22 2.29
0.04 0.09 0.06 0.02 0.07 0.06 0.10 0.30 0.35 0.16 0.21 0.20 0.22 0.22 0.02 0.00 0.00 0.00 0.00 0.00 0.00 0.00 0.00 0.00 0.00 0.00 0.01 0.02 0.01 0.03 0.09 0.03 0.02 0.02 0.03 0.04 0.16 0.67 0.58 0.43 0.60 0.79 1.50 2.02 1.95
0.15 0.16 0.19 0.03 0.00 0.15 0.24 0.25 0.28 0.20 0.09 0.23 0.15 0.24 0.08 0.02 0.01 0.00 0.00 0.00 0.00 0.00 0.00 0.00 0.00 0.00 0.00 0.02 0.02 0.05 0.13 0.15 0.21 0.25 0.21 0.35 0.57 0.80 0.73 1.10 0.75 0.70 0.75 0.66 0.75

GFSSW_prec_precacc_288.txt.gz
Total_Precipitation_Accumulation
0.07 0.06 0.07 0.06 0.06 0.06 0.03 0.03 0.02 0.01 0.01 0.01 0.01 0.00 0.00 0.00 0.00 0.00 0.00 0.00 0.00 0.00 0.00 0.02 0.15 0.33 0.49 0.51 0.57 0.61 1.64 0.41 0.09 0.22 0.07 0.01 0.04 0.03 0.02 0.00 0.02 0.05 0.15 0.03 0.01
0.07 0.06 0.06 0.07 0.06 0.05 0.03 0.03 0.01 0.01 0.01 0.01 0.01 0.00 0.00 0.00 0.00 0.00 0.00 0.00 0.00 0.00 0.04 0.06 0.10 0.17 0.72 0.59 0.62 0.53 0.84 0.10 0.02 0.07 0.07 0.02 0.03 0.03 0.04 0.04 0.11 0.00 0.02 0.00 0.00
0.05 0.05 0.06 0.06 0.06 0.04 0.03 0.03 0.01 0.01 0.00 0.01 0.01 0.00 0.00 0.00 0.00 0.00 0.00 0.00 0.00 0.04 0.05 0.04 0.05 0.17 0.38 0.49 0.94 0.29 0.36 0.01 0.01 0.00 0.03 0.07 0.01 0.02 0.07 0.17 0.12 0.00 0.00 0.00 0.00
0.05 0.05 0.05 0.05 0.05 0.05 0.04 0.02 0.01 0.00 0.01 0.01 0.00 0.00 0.00 0.00 0.00 0.00 0.00 0.00 0.01 0.03 0.01 0.03 0.19 0.71 0.19 0.29 0.14 0.35 0.07 0.00 0.00 0.00 0.02 0.03 0.00 0.00 0.01 0.04 0.00 0.00 0.00 0.00 0.01
0.04 0.04 0.04 0.04 0.05 0.05 0.03 0.02 0.01 0.00 0.01 0.01 0.00 0.00 0.00 0.00 0.00 0.00 0.00 0.00 0.02 0.00 0.00 0.00 0.09 0.16 0.16 0.15 0.16 0.14 0.03 0.01 0.00 0.00 0.00 0.00 0.00 0.00 0.01 0.04 0.04 0.00 0.00 0.00 0.00
0.04 0.04 0.03 0.04 0.05 0.04 0.03 0.02 0.01 0.00 0.00 0.00 0.00 0.00 0.00 0.00 0.00 0.00 0.00 0.00 0.01 0.01 0.00 0.00 0.00 0.00 0.05 0.08 0.18 0.08 0.03 0.02 0.02 0.01 0.01 0.00 0.00 0.00 0.00 0.05 0.06 0.02 0.00 0.00 0.01
0.04 0.03 0.03 0.03 0.04 0.03 0.02 0.01 0.00 0.00 0.00 0.00 0.00 0.00 0.00 0.00 0.00 0.00 0.00 0.00 0.00 0.01 0.01 0.00 0.00 0.00 0.05 0.11 0.10 0.04 0.06 0.02 0.01 0.03 0.01 0.01 0.02 0.01 0.01 0.01 0.02 0.02 0.06 0.12 0.15
0.03 0.03 0.04 0.03 0.03 0.03 0.01 0.00 0.00 0.00 0.00 0.00 0.00 0.00 0.00 0.00 0.00 0.00 0.00 0.00 0.00 0.00 0.00 0.00 0.00 0.01 0.08 0.11 0.17 0.15 0.21 0.16 0.04 0.03 0.04 0.07 0.29 0.04 0.01 0.02 0.05 0.12 0.21 0.32 0.31
0.03 0.03 0.03 0.03 0.03 0.02 0.01 0.00 0.00 0.00 0.00 0.00 0.00 0.00 0.00 0.00 0.00 0.00 0.00 0.00 0.00 0.00 0.00 0.00 0.00 0.01 0.02 0.13 0.22 0.18 0.51 0.40 0.21 0.03 0.11 0.18 0.50 0.15 0.02 0.07 0.05 0.17 0.59 0.48 0.36
0.03 0.03 0.02 0.03 0.03 0.02 0.00 0.00 0.00 0.00 0.00 0.00 0.00 0.00 0.00 0.00 0.00 0.00 0.00 0.00 0.00 0.00 0.00 0.00 0.00 0.00 0.04 0.20 0.23 0.13 0.13 0.14 0.19 0.12 0.10 0.19 0.70 0.52 0.06 0.02 0.06 0.29 0.99 0.26 0.19
0.03 0.03 0.03 0.02 0.02 0.02 0.00 0.01 0.00 0.00 0.00 0.00 0.00 0.00 0.00 0.00 0.00 0.00 0.00 0.00 0.00 0.00 0.00 0.00 0.00 0.00 0.02 0.01 0.01 0.03 0.04 0.10 0.12 0.12 0.10 0.21 0.44 0.41 0.08 0.13 0.06 0.18 0.69 0.37 0.11
0.03 0.03 0.02 0.01 0.00 0.00 0.00 0.00 0.00 0.00 0.00 0.00 0.00 0.00 0.00 0.00 0.00 0.00 0.00 0.00 0.00 0.00 0.00 0.00 0.00 0.00 0.00 0.00 0.00 0.00 0.00 0.06 0.06 0.03 0.08 0.30 0.18 0.14 0.05 0.26 0.29 0.05 0.30 0.21 0.27
0.03 0.03 0.03 0.00 0.00 0.00 0.00 0.00 0.00 0.00 0.00 0.00 0.00 0.00 0.00 0.00 0.00 0.00 0.00 0.00 0.00 0.00 0.00 0.00 0.00 0.00 0.00 0.00 0.00 0.00 0.00 0.01 0.03 0.04 0.07 0.07 0.15 0.18 0.13 0.07 0.12 0.06 0.05 0.15 0.30
0.04 0.03 0.03 0.00 0.00 0.00 0.00 0.00 0.00 0.00 0.00 0.00 0.00 0.00 0.00 0.00 0.00 0.00 0.00 0.00 0.00 0.00 0.00 0.00 0.00 0.00 0.00 0.00 0.00 0.00 0.01 0.00 0.00 0.03 0.06 0.03 0.29 0.31 0.28 0.08 0.16 0.13 0.09 0.04 0.11
0.04 0.03 0.03 0.00 0.00 0.00 0.00 0.00 0.00 0.00 0.00 0.00 0.00 0.00 0.00 0.00 0.00 0.00 0.00 0.00 0.00 0.00 0.00 0.00 0.00 0.00 0.00 0.00 0.00 0.00 0.00 0.00 0.00 0.00 0.01 0.02 0.09 0.18 0.15 0.22 0.44 0.22 0.19 0.17 0.12
0.03 0.04 0.04 0.00 0.00 0.00 0.00 0.00 0.00 0.00 0.00 0.00 0.00 0.00 0.00 0.00 0.00 0.00 0.00 0.00 0.00 0.00 0.00 0.00 0.00 0.00 0.00 0.00 0.00 0.00 0.00 0.00 0.00 0.00 0.02 0.01 0.01 0.04 0.09 0.22 0.18 0.33 0.16 0.22 0.59
0.01 0.01 0.02 0.00 0.00 0.00 0.00 0.00 0.00 0.00 0.00 0.00 0.00 0.00 0.00 0.00 0.00 0.00 0.00 0.00 0.00 0.00 0.00 0.00 0.00 0.00 0.00 0.00 0.00 0.00 0.00 0.00 0.00 0.00 0.01 0.00 0.01 0.00 0.01 0.02 0.17 0.17 0.46 1.22 0.81
0.00 0.00 0.00 0.00 0.00 0.00 0.00 0.00 0.00 0.00 0.00 0.00 0.00 0.00 0.00 0.00 0.00 0.00 0.00 0.00 0.00 0.00 0.00 0.00 0.00 0.00 0.00 0.00 0.00 0.00 0.00 0.00 0.00 0.00 0.00 0.00 0.00 0.02 0.03 0.05 0.10 0.31 0.84 1.18 0.70
0.00 0.00 0.00 0.00 0.00 0.00 0.00 0.00 0.00 0.00 0.00 0.00 0.00 0.00 0.00 0.00 0.00 0.00 0.00 0.00 0.00 0.00 0.00 0.00 0.00 0.00 0.00 0.00 0.00 0.00 0.00 0.00 0.00 0.00 0.00 0.00 0.00 0.01 0.02 0.08 0.23 0.41 0.48 0.64 0.97
0.00 0.00 0.00 0.00 0.00 0.00 0.00 0.00 0.00 0.00 0.00 0.00 0.00 0.00 0.00 0.00 0.00 0.00 0.00 0.00 0.00 0.00 0.00 0.00 0.00 0.00 0.00 0.00 0.00 0.00 0.00 0.00 0.00 0.00 0.00 0.00 0.01 0.05 0.17 0.24 0.55 0.28 0.29 0.66 0.82
0.00 0.00 0.00 0.00 0.00 0.00 0.00 0.00 0.00 0.00 0.00 0.00 0.00 0.00 0.00 0.00 0.00 0.00 0.00 0.00 0.00 0.00 0.00 0.00 0.00 0.00 0.00 0.00 0.00 0.00 0.00 0.00 0.00 0.00 0.01 0.01 0.07 0.09 0.16 0.40 0.37 0.19 0.42 0.72 0.73
0.00 0.00 0.00 0.00 0.00 0.00 0.00 0.00 0.00 0.00 0.00 0.00 0.00 0.00 0.00 0.00 0.00 0.00 0.00 0.00 0.00 0.00 0.00 0.00 0.00 0.00 0.00 0.00 0.00 0.00 0.02 0.05 0.02 0.06 0.04 0.01 0.11 0.27 0.31 0.31 0.38 0.81 1.72 1.41 1.05
0.00 0.00 0.00 0.00 0.00 0.00 0.00 0.00 0.00 0.00 0.00 0.00 0.00 0.00 0.00 0.00 0.00 0.00 0.00 0.00 0.00 0.00 0.00 0.00 0.00 0.00 0.00 0.00 0.01 0.04 0.06 0.07 0.02 0.01 0.04 0.21 0.21 0.32 0.42 0.67 1.27 1.68 1.79 1.40 1.36
0.00 0.00 0.00 0.00 0.00 0.00 0.01 0.00 0.03 0.02 0.02 0.02 0.00 0.00 0.00 0.00 0.00 0.00 0.00 0.00 0.00 0.00 0.00 0.00 0.01 0.00 0.01 0.01 0.00 0.00 0.00 0.01 0.02 0.02 0.05 0.23 0.22 0.48 0.59 0.49 1.22 1.52 2.06 2.39 2.37
0.00 0.01 0.06 0.07 0.05 0.02 0.06 0.03 0.06 0.19 0.17 0.10 0.07 0.00 0.00 0.00 0.00 0.00 0.00 0.00 0.00 0.00 0.00 0.00 0.00 0.01 0.01 0.02 0.01 0.01 0.00 0.02 0.01 0.04 0.16 0.09 0.22 0.84 1.29 0.63 0.87 1.37 3.22 3.22 2.29
0.04 0.09 0.06 0.02 0.07 0.06 0.10 0.30 0.35 0.16 0.21 0.20 0.22 0.22 0.02 0.00 0.00 0.00 0.00 0.00 0.00 0.00 0.00 0.00 0.00 0.00 0.01 0.02 0.01 0.03 0.09 0.03 0.02 0.02 0.03 0.04 0.16 0.67 0.58 0.43 0.60 0.79 1.50 2.02 1.95
0.15 0.16 0.19 0.03 0.00 0.15 0.24 0.25 0.28 0.20 0.09 0.23 0.15 0.24 0.08 0.02 0.01 0.00 0.00 0.00 0.00 0.00 0.00 0.00 0.00 0.00 0.00 0.02 0.02 0.05 0.13 0.15 0.21 0.25 0.21 0.35 0.57 0.80 0.73 1.10 0.75 0.70 0.75 0.66 0.75

GFSSW_prec_precacc_291.txt.gz
Total_Precipitation_Accumulation
0.07 0.06 0.07 0.06 0.06 0.06 0.03 0.03 0.02 0.01 0.01 0.01 0.01 0.00 0.00 0.00 0.00 0.00 0.00 0.00 0.00 0.00 0.00 0.03 0.17 0.36 0.52 0.55 0.58 0.63 1.65 0.41 0.09 0.22 0.07 0.01 0.04 0.03 0.02 0.00 0.02 0.05 0.15 0.03 0.01
0.07 0.06 0.06 0.07 0.06 0.05 0.03 0.03 0.01 0.01 0.01 0.01 0.01 0.00 0.00 0.00 0.00 0.00 0.00 0.00 0.00 0.00 0.05 0.08 0.25 0.30 1.08 0.63 0.62 0.55 0.84 0.10 0.02 0.07 0.07 0.02 0.03 0.03 0.04 0.04 0.11 0.00 0.02 0.00 0.00
0.05 0.05 0.06 0.06 0.06 0.04 0.03 0.03 0.01 0.01 0.00 0.01 0.01 0.00 0.00 0.00 0.00 0.00 0.00 0.00 0.00 0.04 0.06 0.17 0.33 0.22 0.83 0.53 0.94 0.29 0.36 0.01 0.01 0.00 0.03 0.07 0.01 0.02 0.07 0.17 0.12 0.00 0.00 0.00 0.00
0.05 0.05 0.05 0.05 0.05 0.05 0.04 0.02 0.01 0.00 0.01 0.01 0.00 0.00 0.00 0.00 0.00 0.00 0.00 0.00 0.01 0.03 0.03 0.20 0.68 0.89 0.25 0.30 0.14 0.35 0.07 0.00 0.00 0.00 0.02 0.03 0.00 0.00 0.01 0.04 0.00 0.00 0.00 0.00 0.01
0.04 0.04 0.04 0.04 0.05 0.05 0.03 0.02 0.01 0.00 0.01 0.01 0.00 0.00 0.00 0.00 0.00 0.00 0.00 0.00 0.02 0.00 0.00 0.05 0.24 0.23 0.20 0.16 0.16 0.14 0.03 0.01 0.00 0.00 0.00 0.00 0.00 0.00 0.01 0.04 0.04 0.00 0.00 0.00 0.00
0.04 0.04 0.03 0.04 0.05 0.04 0.03 0.02 0.01 0.00 0.00 0.00 0.00 0.00 0.00 0.00 0.00 0.00 0.00 0.00 0.01 0.01 0.01 0.01 0.00 0.00 0.07 0.09 0.18 0.09 0.03 0.02 0.02 0.01 0.01 0.00 0.00 0.00 0.00 0.05 0.06 0.02 0.00 0.00 0.01
0.04 0.04 0.03 0.04 0.04 0.03 0.02 0.01 0.00 0.00 0.00 0.00 0.00 0.00 0.00 0.00 0.00 0.00 0.00 0.00 0.00 0.01 0.01 0.01 0.00 0.01 0.06 0.13 0.12 0.05 0.06 0.02 0.01 0.03 0.01 0.01 0.02 0.01 0.01 0.01 0.02 0.02 0.06 0.12 0.15
0.03 0.04 0.04 0.03 0.03 0.03 0.01 0.00 0.00 0.00 0.00 0.00 0.00 0.00 0.00 0.00 0.00 0.00 0.00 0.00 0.00 0.00 0.00 0.00 0.00 0.02 0.10 0.13 0.21 0.16 0.27 0.18 0.04 0.03 0.04 0.07 0.29 0.04 0.01 0.02 0.05 0.12 0.21 0.32 0.31
0.03 0.03 0.03 0.03 0.03 0.02 0.01 0.00 0.00 0.00 0.00 0.00 0.00 0.00 0.00 0.00 0.00 0.00 0.00 0.00 0.00 0.00 0.00 0.00 0.00 0.01 0.03 0.19 0.34 0.21 0.57 0.42 0.22 0.03 0.11 0.18 0.50 0.15 0.02 0.07 0.05 0.17 0.59 0.48 0.36
0.03 0.03 0.02 0.03 0.03 0.02 0.00 0.00 0.00 0.00 0.00 0.00 0.00 0.00 0.00 0.00 0.00 0.00 0.00 0.00 0.00 0.00 0.00 0.00 0.00 0.00 0.05 0.21 0.25 0.16 0.14 0.18 0.21 0.12 0.10 0.19 0.71 0.52 0.06 0.02 0.06 0.29 0.99 0.26 0.19
0.03 0.03 0.03 0.02 0.02 0.02 0.00 0.01 0.00 0.00 0.00 0.00 0.00 0.00 0.00 0.00 0.00 0.00 0.00 0.00 0.00 0.00 0.00 0.00 0.00 0.00 0.02 0.02 0.01 0.03 0.04 0.11 0.13 0.12 0.10 0.22 0.47 0.44 0.08 0.13 0.06 0.18 0.69 0.37 0.11
0.03 0.03 0.02 0.01 0.00 0.00 0.00 0.00 0.00 0.00 0.00 0.00 0.00 0.00 0.00 0.00 0.00 0.00 0.00 0.00 0.00 0.00 0.00 0.00 0.00 0.00 0.00 0.00 0.00 0.00 0.00 0.07 0.06 0.04 0.09 0.39 0.56 0.19 0.07 0.26 0.29 0.05 0.30 0.21 0.27
0.03 0.03 0.03 0.00 0.00 0.00 0.00 0.00 0.00 0.00 0.00 0.00 0.00 0.00 0.00 0.00 0.00 0.00 0.00 0.00 0.00 0.00 0.00 0.00 0.00 0.00 0.00 0.00 0.00 0.00 0.00 0.01 0.04 0.06 0.07 0.09 0.15 0.20 0.14 0.09 0.12 0.06 0.05 0.15 0.30
0.04 0.03 0.03 0.00 0.00 0.00 0.00 0.00 0.00 0.00 0.00 0.00 0.00 0.00 0.00 0.00 0.00 0.00 0.00 0.00 0.00 0.00 0.00 0.00 0.00 0.00 0.00 0.00 0.00 0.00 0.01 0.00 0.00 0.03 0.06 0.03 0.29 0.31 0.29 0.10 0.17 0.13 0.09 0.04 0.11
0.04 0.04 0.03 0.00 0.00 0.00 0.00 0.00 0.00 0.00 0.00 0.00 0.00 0.00 0.00 0.00 0.00 0.00 0.00 0.00 0.00 0.00 0.00 0.00 0.00 0.00 0.00 0.00 0.00 0.00 0.00 0.00 0.00 0.00 0.01 0.02 0.09 0.18 0.16 0.25 0.48 0.24 0.19 0.17 0.12
0.03 0.04 0.04 0.00 0.00 0.00 0.00 0.00 0.00 0.00 0.00 0.00 0.00 0.00 0.00 0.00 0.00 0.00 0.00 0.00 0.00 0.00 0.00 0.00 0.00 0.00 0.00 0.00 0.00 0.00 0.00 0.00 0.00 0.00 0.02 0.01 0.01 0.05 0.15 0.30 0.31 0.41 0.16 0.22 0.59
0.01 0.01 0.02 0.00 0.00 0.00 0.00 0.00 0.00 0.00 0.00 0.00 0.00 0.00 0.00 0.00 0.00 0.00 0.00 0.00 0.00 0.00 0.00 0.00 0.00 0.00 0.00 0.00 0.00 0.00 0.00 0.00 0.00 0.00 0.01 0.00 0.01 0.00 0.02 0.03 0.25 0.19 0.46 1.22 0.81
0.00 0.00 0.00 0.00 0.00 0.00 0.00 0.00 0.00 0.00 0.00 0.00 0.00 0.00 0.00 0.00 0.00 0.00 0.00 0.00 0.00 0.00 0.00 0.00 0.00 0.00 0.00 0.00 0.00 0.00 0.00 0.00 0.00 0.00 0.00 0.00 0.00 0.02 0.03 0.05 0.10 0.31 0.85 1.18 0.70
0.00 0.00 0.00 0.00 0.00 0.00 0.00 0.00 0.00 0.00 0.00 0.00 0.00 0.00 0.00 0.00 0.00 0.00 0.00 0.00 0.00 0.00 0.00 0.00 0.00 0.00 0.00 0.00 0.00 0.00 0.00 0.00 0.00 0.00 0.00 0.00 0.00 0.01 0.02 0.08 0.23 0.41 0.48 0.64 0.97
0.00 0.00 0.00 0.00 0.00 0.00 0.00 0.00 0.00 0.00 0.00 0.00 0.00 0.00 0.00 0.00 0.00 0.00 0.00 0.00 0.00 0.00 0.00 0.00 0.00 0.00 0.00 0.00 0.00 0.00 0.00 0.00 0.00 0.00 0.00 0.00 0.01 0.05 0.17 0.24 0.55 0.28 0.29 0.67 0.82
0.00 0.00 0.00 0.00 0.00 0.00 0.00 0.00 0.00 0.00 0.00 0.00 0.00 0.00 0.00 0.00 0.00 0.00 0.00 0.00 0.00 0.00 0.00 0.00 0.00 0.00 0.00 0.00 0.00 0.00 0.00 0.00 0.00 0.00 0.01 0.01 0.07 0.09 0.16 0.40 0.37 0.19 0.42 0.72 0.74
0.00 0.00 0.00 0.00 0.00 0.00 0.00 0.00 0.00 0.00 0.00 0.00 0.00 0.00 0.00 0.00 0.00 0.00 0.00 0.00 0.00 0.00 0.00 0.00 0.00 0.00 0.00 0.00 0.00 0.00 0.02 0.05 0.02 0.06 0.04 0.01 0.11 0.27 0.31 0.31 0.38 0.81 1.72 1.41 1.05
0.00 0.00 0.00 0.00 0.00 0.00 0.00 0.00 0.00 0.00 0.00 0.00 0.00 0.00 0.00 0.00 0.00 0.00 0.00 0.00 0.00 0.00 0.00 0.00 0.00 0.00 0.00 0.00 0.01 0.04 0.06 0.07 0.02 0.01 0.04 0.21 0.21 0.32 0.42 0.67 1.27 1.68 1.79 1.40 1.36
0.00 0.00 0.00 0.00 0.00 0.00 0.01 0.00 0.03 0.02 0.02 0.02 0.00 0.00 0.00 0.00 0.00 0.00 0.00 0.00 0.00 0.00 0.00 0.00 0.01 0.00 0.01 0.01 0.00 0.00 0.00 0.01 0.02 0.02 0.05 0.23 0.22 0.48 0.59 0.49 1.22 1.52 2.06 2.39 2.37
0.00 0.01 0.06 0.07 0.05 0.02 0.06 0.03 0.06 0.19 0.17 0.10 0.07 0.00 0.00 0.00 0.00 0.00 0.00 0.00 0.00 0.00 0.00 0.00 0.00 0.01 0.01 0.02 0.01 0.01 0.00 0.02 0.01 0.04 0.16 0.09 0.22 0.84 1.29 0.63 0.87 1.37 3.22 3.22 2.29
0.04 0.09 0.06 0.02 0.07 0.06 0.10 0.30 0.35 0.16 0.21 0.20 0.22 0.22 0.02 0.00 0.00 0.00 0.00 0.00 0.00 0.00 0.00 0.00 0.00 0.00 0.01 0.02 0.01 0.03 0.09 0.03 0.02 0.02 0.03 0.04 0.16 0.67 0.58 0.43 0.60 0.79 1.50 2.02 1.95
0.15 0.16 0.19 0.03 0.00 0.15 0.24 0.25 0.28 0.20 0.09 0.23 0.15 0.24 0.08 0.02 0.01 0.00 0.00 0.00 0.00 0.00 0.00 0.00 0.00 0.00 0.00 0.02 0.02 0.05 0.13 0.15 0.21 0.25 0.21 0.35 0.57 0.80 0.73 1.10 0.75 0.70 0.75 0.66 0.75

GFSSW_prec_precacc_297.txt.gz
Total_Precipitation_Accumulation
0.07 0.06 0.07 0.07 0.07 0.06 0.03 0.03 0.02 0.01 0.01 0.01 0.01 0.00 0.00 0.00 0.00 0.00 0.00 0.00 0.00 0.00 0.00 0.03 0.18 0.37 0.55 0.59 0.63 0.68 1.71 0.42 0.09 0.22 0.07 0.01 0.04 0.03 0.02 0.00 0.02 0.05 0.15 0.03 0.01
0.07 0.06 0.06 0.07 0.06 0.05 0.03 0.03 0.01 0.01 0.01 0.01 0.01 0.00 0.00 0.00 0.00 0.00 0.00 0.00 0.00 0.00 0.05 0.08 0.25 0.30 1.09 0.63 0.62 0.58 0.86 0.10 0.02 0.07 0.07 0.02 0.03 0.03 0.04 0.04 0.11 0.00 0.02 0.00 0.00
0.06 0.06 0.06 0.06 0.06 0.04 0.03 0.03 0.01 0.01 0.00 0.01 0.01 0.00 0.00 0.00 0.00 0.00 0.00 0.00 0.00 0.04 0.07 0.17 0.33 0.22 0.83 0.53 0.94 0.29 0.36 0.01 0.01 0.00 0.03 0.07 0.01 0.02 0.07 0.17 0.12 0.00 0.00 0.00 0.00
0.06 0.06 0.06 0.06 0.05 0.05 0.04 0.02 0.01 0.00 0.01 0.01 0.00 0.00 0.00 0.00 0.00 0.00 0.00 0.00 0.01 0.03 0.03 0.21 0.68 0.90 0.25 0.30 0.14 0.35 0.07 0.00 0.00 0.00 0.02 0.03 0.00 0.00 0.01 0.04 0.00 0.00 0.00 0.00 0.01
0.04 0.05 0.05 0.05 0.05 0.05 0.03 0.02 0.01 0.00 0.01 0.01 0.00 0.00 0.00 0.00 0.00 0.00 0.00 0.00 0.02 0.00 0.00 0.05 0.24 0.23 0.20 0.16 0.16 0.14 0.03 0.01 0.00 0.00 0.00 0.00 0.00 0.00 0.01 0.04 0.04 0.00 0.00 0.00 0.00
0.04 0.04 0.04 0.05 0.05 0.04 0.03 0.02 0.01 0.00 0.00 0.00 0.00 0.00 0.00 0.00 0.00 0.00 0.00 0.00 0.01 0.01 0.01 0.01 0.00 0.00 0.07 0.09 0.18 0.09 0.03 0.02 0.02 0.01 0.01 0.00 0.00 0.00 0.00 0.05 0.06 0.02 0.00 0.00 0.01
0.05 0.04 0.04 0.04 0.04 0.03 0.02 0.01 0.00 0.00 0.00 0.00 0.00 0.00 0.00 0.00 0.00 0.00 0.00 0.00 0.00 0.01 0.01 0.01 0.00 0.01 0.06 0.13 0.12 0.05 0.06 0.02 0.01 0.03 0.01 0.01 0.02 0.01 0.01 0.01 0.02 0.02 0.06 0.12 0.15
0.04 0.04 0.04 0.04 0.04 0.03 0.01 0.00 0.00 0.00 0.00 0.00 0.00 0.00 0.00 0.00 0.00 0.00 0.00 0.00 0.00 0.00 0.00 0.00 0.00 0.02 0.10 0.14 0.24 0.17 0.27 0.18 0.04 0.03 0.05 0.07 0.29 0.04 0.01 0.02 0.05 0.12 0.21 0.32 0.31
0.04 0.04 0.04 0.04 0.04 0.02 0.01 0.00 0.00 0.00 0.00 0.00 0.00 0.00 0.00 0.00 0.00 0.00 0.00 0.00 0.00 0.00 0.00 0.00 0.00 0.01 0.03 0.19 0.35 0.21 0.58 0.43 0.23 0.04 0.12 0.18 0.51 0.15 0.02 0.07 0.05 0.17 0.59 0.48 0.36
0.04 0.04 0.03 0.04 0.03 0.02 0.00 0.00 0.00 0.00 0.00 0.00 0.00 0.00 0.00 0.00 0.00 0.00 0.00 0.00 0.00 0.00 0.00 0.00 0.00 0.00 0.05 0.21 0.25 0.16 0.16 0.21 0.27 0.13 0.12 0.21 0.73 0.53 0.06 0.02 0.06 0.29 0.99 0.26 0.19
0.04 0.04 0.03 0.03 0.02 0.02 0.00 0.01 0.00 0.00 0.00 0.00 0.00 0.00 0.00 0.00 0.00 0.00 0.00 0.00 0.00 0.00 0.00 0.00 0.00 0.00 0.02 0.02 0.02 0.04 0.06 0.18 0.25 0.18 0.13 0.25 0.50 0.45 0.08 0.13 0.06 0.18 0.69 0.37 0.11
0.04 0.04 0.03 0.01 0.00 0.00 0.00 0.00 0.00 0.00 0.00 0.00 0.00 0.00 0.00 0.00 0.00 0.00 0.00 0.00 0.00 0.00 0.00 0.00 0.00 0.00 0.00 0.00 0.00 0.00 0.01 0.15 0.13 0.12 0.12 0.41 0.64 0.20 0.07 0.26 0.29 0.05 0.30 0.21 0.27
0.04 0.03 0.03 0.00 0.00 0.00 0.00 0.00 0.00 0.00 0.00 0.00 0.00 0.00 0.00 0.00 0.00 0.00 0.00 0.00 0.00 0.00 0.00 0.00 0.00 0.00 0.00 0.00 0.00 0.00 0.00 0.01 0.07 0.07 0.09 0.11 0.16 0.20 0.15 0.11 0.13 0.06 0.05 0.15 0.30
0.04 0.04 0.04 0.00 0.00 0.00 0.00 0.00 0.00 0.00 0.00 0.00 0.00 0.00 0.00 0.00 0.00 0.00 0.00 0.00 0.00 0.00 0.00 0.00 0.00 0.00 0.00 0.00 0.00 0.00 0.01 0.00 0.03 0.04 0.06 0.04 0.30 0.31 0.30 0.14 0.21 0.13 0.09 0.04 0.11
0.04 0.04 0.04 0.01 0.00 0.00 0.00 0.00 0.00 0.00 0.00 0.00 0.00 0.00 0.00 0.00 0.00 0.00 0.00 0.00 0.00 0.00 0.00 0.00 0.00 0.00 0.00 0.00 0.00 0.00 0.00 0.00 0.00 0.00 0.01 0.02 0.10 0.19 0.16 0.26 0.50 0.28 0.21 0.18 0.12
0.03 0.04 0.05 0.00 0.00 0.00 0.00 0.00 0.00 0.00 0.00 0.00 0.00 0.00 0.00 0.00 0.00 0.00 0.00 0.00 0.00 0.00 0.00 0.00 0.00 0.00 0.00 0.00 0.00 0.00 0.00 0.00 0.00 0.00 0.02 0.01 0.01 0.05 0.15 0.30 0.32 0.44 0.18 0.22 0.59
0.01 0.01 0.03 0.00 0.00 0.00 0.00 0.00 0.00 0.00 0.00 0.00 0.00 0.00 0.00 0.00 0.00 0.00 0.00 0.00 0.00 0.00 0.00 0.00 0.00 0.00 0.00 0.00 0.00 0.00 0.00 0.00 0.00 0.00 0.01 0.00 0.01 0.00 0.02 0.03 0.26 0.22 0.46 1.22 0.81
0.00 0.00 0.00 0.00 0.00 0.00 0.00 0.00 0.00 0.00 0.00 0.00 0.00 0.00 0.00 0.00 0.00 0.00 0.00 0.00 0.00 0.00 0.00 0.00 0.00 0.00 0.00 0.00 0.00 0.00 0.00 0.00 0.00 0.00 0.00 0.00 0.00 0.02 0.03 0.05 0.10 0.31 0.85 1.18 0.70
0.00 0.00 0.00 0.00 0.00 0.00 0.00 0.00 0.00 0.00 0.00 0.00 0.00 0.00 0.00 0.00 0.00 0.00 0.00 0.00 0.00 0.00 0.00 0.00 0.00 0.00 0.00 0.00 0.00 0.00 0.00 0.00 0.00 0.00 0.00 0.00 0.00 0.01 0.02 0.08 0.23 0.41 0.48 0.64 0.97
0.00 0.00 0.00 0.00 0.00 0.00 0.00 0.00 0.00 0.00 0.00 0.00 0.00 0.00 0.00 0.00 0.00 0.00 0.00 0.00 0.00 0.00 0.00 0.00 0.00 0.00 0.00 0.00 0.00 0.00 0.00 0.00 0.00 0.00 0.00 0.00 0.01 0.05 0.17 0.24 0.55 0.28 0.29 0.67 0.82
0.00 0.00 0.00 0.00 0.00 0.00 0.00 0.00 0.00 0.00 0.00 0.00 0.00 0.00 0.00 0.00 0.00 0.00 0.00 0.00 0.00 0.00 0.00 0.00 0.00 0.00 0.00 0.00 0.00 0.00 0.00 0.00 0.00 0.00 0.01 0.01 0.07 0.09 0.16 0.40 0.37 0.19 0.42 0.72 0.74
0.00 0.00 0.00 0.00 0.00 0.00 0.00 0.00 0.00 0.00 0.00 0.00 0.00 0.00 0.00 0.00 0.00 0.00 0.00 0.00 0.00 0.00 0.00 0.00 0.00 0.00 0.00 0.00 0.00 0.00 0.02 0.05 0.02 0.06 0.04 0.01 0.11 0.27 0.31 0.31 0.38 0.81 1.72 1.41 1.05
0.00 0.00 0.00 0.00 0.00 0.00 0.00 0.00 0.00 0.00 0.00 0.00 0.00 0.00 0.00 0.00 0.00 0.00 0.00 0.00 0.00 0.00 0.00 0.00 0.00 0.00 0.00 0.00 0.01 0.04 0.06 0.07 0.02 0.01 0.04 0.21 0.21 0.32 0.42 0.67 1.27 1.68 1.79 1.40 1.36
0.00 0.00 0.00 0.00 0.00 0.00 0.01 0.00 0.03 0.02 0.02 0.02 0.00 0.00 0.00 0.00 0.00 0.00 0.00 0.00 0.00 0.00 0.00 0.00 0.01 0.00 0.01 0.01 0.00 0.00 0.00 0.01 0.02 0.02 0.05 0.23 0.22 0.48 0.59 0.49 1.22 1.52 2.06 2.39 2.37
0.00 0.01 0.06 0.07 0.05 0.02 0.06 0.03 0.06 0.19 0.17 0.10 0.07 0.00 0.00 0.00 0.00 0.00 0.00 0.00 0.00 0.00 0.00 0.00 0.00 0.01 0.01 0.02 0.01 0.01 0.00 0.02 0.01 0.04 0.16 0.09 0.22 0.84 1.29 0.63 0.87 1.37 3.22 3.22 2.29
0.04 0.09 0.06 0.02 0.07 0.06 0.10 0.30 0.35 0.16 0.21 0.20 0.22 0.22 0.02 0.00 0.00 0.00 0.00 0.00 0.00 0.00 0.00 0.00 0.00 0.00 0.01 0.02 0.01 0.03 0.09 0.03 0.02 0.02 0.03 0.04 0.16 0.67 0.58 0.43 0.60 0.79 1.50 2.02 1.95
0.15 0.16 0.19 0.03 0.00 0.15 0.24 0.25 0.28 0.20 0.09 0.23 0.15 0.24 0.08 0.02 0.01 0.00 0.00 0.00 0.00 0.00 0.00 0.00 0.00 0.00 0.00 0.02 0.02 0.05 0.13 0.15 0.21 0.25 0.21 0.35 0.57 0.80 0.73 1.10 0.75 0.70 0.75 0.66 0.75